Location: Ostrava
(49.8330°N, 18.2830°E)
Time: 12:26:42
(UTC+02:00)

Vanguard 2 Rocket - Visible Passes

Search period start: 02 October 2014 00:00
Search period end: 12 October 2014 00:00
Orbit: 553 x 3336 km, 32.9° (Epoch: 30 September)

Date Brightness Start Highest point End Pass type
(mag) Time Alt. Az. Time Alt. Az. Time Alt. Az.
06 Oct 10.5 06:03:46 10° SSE 06:10:04 15° SE 06:17:51 10° ESE visible
08 Oct 10.2 06:17:25 10° S 06:25:08 21° SE 06:35:35 10° E visible
09 Oct 10.3 05:22:25 10° SSE 05:26:56 13° SE 05:32:22 10° ESE visible
11 Oct 9.9 05:35:56 10° S 05:42:06 19° SE 05:50:22 10° ESE visible
